Regional Weather Roundup
Issued by NWS

Home | Current Version | Previous Version | Text Only | Print | Product List | Glossary On
Versions: 1 2 3 4 5 6 7 8 9 10 11 12 13 14 15 16 17 18 19 20 21 22 23 24 25 26 27 28 29 30 31 32 33 34 35 36 37 38 39 40 41 42 43 44 45 46 47 48 49 50
000
ASUS43 KDMX 211607
RWRIA

WEATHER ROUNDUP FOR IOWA
NATIONAL WEATHER SERVICE DES MOINES IA
1100 AM CDT THU AUG 21 2014

NOTE: "FAIR" INDICATES FEW OR NO CLOUDS BELOW 12,000 FEET WITH NO
SIGNIFICANT WEATHER AND/OR OBSTRUCTIONS TO VISIBILITY.

* - THESE STATIONS ARE NOT NWS STATIONS...THUS NOT UNDER NWS
QUALITY CONTROL.  THEY ALSO DO NOT REPORT WEATHER SUCH
AS PRECIPITATION OR FOG.

IAZ001>003-012>014-020>022-031>034-043>046-211700-
   NORTHWEST IOWA

CITY           SKY/WX    TMP DP  RH WIND       PRES   REMARKS
CARROLL *      MOSUNNY   79  73  83 SE8       29.85S HX  82
CHEROKEE *     MOSUNNY   81  72  74 S7        29.82S HX  84
DENISON *      MOSUNNY   81  70  69 VRB6      29.82S HX  84
LE MARS *      SUNNY     82  68  61 SW13      29.81S HX  85
ORANGE CITY *  SUNNY     82  68  61 S12       29.81R HX  85
SHELDON *      SUNNY     81  72  74 S12       29.79R HX  84
SIOUX CITY     SUNNY     83  69  62 SW9       29.80S HX  86
SPENCER        CLOUDY    81  71  71 S15       29.80F HX  85
STORM LAKE *   SUNNY     79  77  94 S8        29.84S HX  83
$$

IAZ055>058-069>071-079>083-090>094-211700-
   SOUTHWEST IOWA

CITY           SKY/WX    TMP DP  RH WIND       PRES   REMARKS
ATLANTIC *     SUNNY     79  72  78 S7        29.85S HX  82
AUDUBON *      SUNNY     81  73  78 S3        29.88R HX  85
CLARINDA *     SUNNY     77  72  83 S8        29.88R
COUNCIL BLFS * SUNNY     79  72  78 SW8G17    29.83F HX  82
CRESTON *      SUNNY     77  72  83 S5        29.90F
HARLAN  *      MOSUNNY   77  72  83 SE6       29.88S
LAMONI         CLOUDY    80  72  76 SW17      29.89S HX  84
RED OAK *      MOSUNNY   77  72  83 CALM      29.86R
SHENANDOAH *   SUNNY     77  72  83 SW13      29.86R
$$

IAZ047>049-059>061-072>074-084-211700-
   CENTRAL IOWA

CITY           SKY/WX    TMP DP  RH WIND       PRES   REMARKS
AMES           LGT RAIN  75  75 100 SE7       29.87F
ANKENY *       LGT RAIN  77  73  88 CALM      29.90R
CHARITON *     SUNNY     82  73  74 SW15      29.89R HX  88
DES MOINES     CLOUDY    78  72  81 VRB3      29.88R HX  80
GRINNELL*      LGT RAIN  79  72  78 SW7       29.91R HX  82
KNOXVILLE *    RAIN      77  72  83 W12       29.90R
MARSHALLTOWN   TSTM      74  72  93 N7        29.88F FOG
PELLA *        PTSUNNY   82  72  69 W14G21    29.92R HX  87
PERRY *          N/A     77  73  88 SE3       29.88F
$$

IAZ004>006-015-016-023>025-035-036-211700-
   NORTH CENTRAL IOWA

CITY           SKY/WX    TMP DP  RH WIND       PRES   REMARKS
ALGONA *       SUNNY     77  72  83 S13       29.84F
CLARION *      SUNNY     75  73  94 E8        29.85F
ESTHERVILLE    CLOUDY    76  72  87 S20       29.80F
FORT DODGE *   CLOUDY    75  72  88 SW3       29.85F
MASON CITY     CLOUDY    72  71  97 SE12      29.87F
FOREST CITY *    N/A     72  72 100 S15       29.86F
IOWA FALLS *   RAIN      73  72  94 CALM      29.91R
$$

IAZ007>011-017>019-026>030-037>042-050>054-066-211700-
   NORTHEAST IOWA

CITY           SKY/WX    TMP DP  RH WIND       PRES   REMARKS
CEDAR RAPIDS   CLOUDY    77  72  84 W5        29.92R
CHARLES CITY * LGT RAIN  72  72 100 SE15      29.88F
CLINTON *      CLOUDY    75  72  88 S9        29.97R
DECORAH *      CLOUDY    70  70 100 S14       29.90S
DUBUQUE        CLOUDY    73  72  96 S9        29.93F FOG
MONTICELLO *   MOSUNNY   77  73  88 S7        29.93R
OELWEIN *      LGT RAIN  73  73 100 NE3G12    29.92F
WATERLOO       LGT RAIN  75  72  90 E6        29.89F
$$

IAZ064-065-067-068-078-211700-
   EAST CENTRAL IOWA

CITY           SKY/WX    TMP DP  RH WIND       PRES   REMARKS
DAVENPORT      CLOUDY    76  71  85 S8        29.94R
IOWA CITY      CLOUDY    79  71  76 CALM      29.92R HX  82
MT. PLEASANT * PTSUNNY   82  70  65 SW7       29.92S HX  86
MUSCATINE *    SUNNY     81  72  74 S6        29.92S HX  84
QUAD CITIES    CLOUDY    79  70  74 CALM      29.93R HX  82
$$

IAZ062-063-075>077-085>089-095>099-211700-
   SOUTHEAST IOWA

CITY           SKY/WX    TMP DP  RH WIND       PRES   REMARKS
BURLINGTON     PTSUNNY   81  72  74 SW12      29.93R HX  85
FAIRFIELD *    SUNNY     81  72  74 SW6       29.91S HX  84
FORT MADISON * SUNNY     84  75  74 SW12      29.93S HX  92
KEOKUK *       SUNNY     82  73  74 SW15      29.92R HX  88
OSKALOOSA *    PTSUNNY   81  73  78 SW3       29.90S HX  85
CENTERVILLE *  SUNNY     84  73  70 SW10G18   29.92F HX  91
OTTUMWA        PTSUNNY   82  72  71 SW7       29.89S HX  87
WASHINGTON *   SUNNY     81  75  83 SW8       29.90F HX  86
$$

ABBREVIATIONS USED IN REMARKS
   TC - TEMPERATURES IN CELSIUS
  WCI - WIND CHILL INDEX
   HX - HEAT INDEX
  VSB - VISIBILITY
$$




USA.gov is the U.S. government's official web portal to all federal, state and local government web resources and services.